Location: Shannon
(40.5500°S, 175.4167°E)
Time: 20:57:32
(UTC+00:00)

Cosmos 2237 Rocket - Pass Details

Date: 17 November 2025
Orbit: 835 x 847 km, 71.0° (Epoch: 14 December)

Event Time Altitude Azimuth Distance (km) Brightness Sun altitude
Rises 14:26:06 0° 217° (SW) 3,442 5.6 -21.7°
Reaches altitude 10° 14:28:59 10° 229° (SW) 2,498 4.7 -21.4°
Enters shadow 14:32:40 23° 268° (W) 1,724 3.5 -21.0°
